sat.trackr.live / text

‹ back to catalog

ION SCV-013

NORAD 58300 · 2023-174AW

PAYLOAD ACTIVE UNKNOWN

§ Identity

Operator
Country
IT
Launch date
2023-11-11
Launch site
AFWTR
Launch vehicle
Mass (kg)
RCS (m²)

External: N2YO · Heavens-Above · Gunter

§ Orbital elements

Epoch: 2026-05-25T03:49:45.895008Z

Period
95.68 min
Inclination
97.6170°
Eccentricity
0.0097255
Mean motion
15.05000337 rev/d
Perigee alt
484.1 km
Apogee alt
618.9 km
Semi-major
6,929.6 km
B*
1.1870e-4
RAAN
200.5434°
Arg perigee
274.4659°
Mean anomaly
84.5462°
Rev number
13,807

§ Raw data

ION SCV-0131 58300U 23174AW  26145.15955897  .00001799  00000+0  11870-3 0  99952 58300  97.6170 200.5434 0097255 274.4659  84.5462 15.05000337138073

JSON: /api/v1/satellites/58300 · /tle

For live sub-satellite position, see the globe view (requires WebGL).

§ Visibility from observer

Set your observer location to see the next 7 days of passes ≥ 10°. The values pass through the URL so the page stays shareable.

No JS? Fill the form by hand. The geolocation button needs JavaScript.

§ Radio — SatNOGS DB

ModeDescriptionDownlinkUplink
FSK AX.100 Mode 5 Mode U - FSK1k2 AX.100 401.415 MHz
BPSK S-band telemetry 2.266 GHz

2 transmitters · refreshed weekly from db.satnogs.org